Weather History for KMLF - September, 2013

Change the Weather History Date:

Sunday, September 15, 2013

  Actual Average Record
Temperature  
Mean Temperature 66 °F -  
Max Temperature 82 °F 78 °F 95 °F (2000)
Min Temperature 51 °F 44 °F 33 °F (2005)
Cooling Degree Days 2    
Growing Degree Days 16 (Base 50)    
Moisture  
Dew Point 50 °F    
Average Humidity 62    
Maximum Humidity 96    
Minimum Humidity 19    
Precipitation  
Precipitation 0.00 in - - ()
Sea Level Pressure  
Sea Level Pressure 29.91 in    
Wind  
Wind Speed 4 mph (SSW)    
Max Wind Speed 10 mph    
Max Gust Speed -    
Visibility 9 miles    
Events      
Averages and records for this station are not official NWS values.
T = Trace of Precipitation, MM = Missing Value Source: NWS Daily Summary

Daily Weather History Graph

Daily Weather History Graph

Search for Another Location

Airport or City:

Trip Planner

Search our weather history database for the weather conditions in past years. The results will help you decide how hot, cold, wet, or windy it might be!

Date:

Astronomy

Sep. 15, 2013 Rise Set
Actual Time 7:13 AM MDT 7:39 PM MDT
Civil Twilight 6:47 AM MDT 8:06 PM MDT
Nautical Twilight 6:16 AM MDT 8:37 PM MDT
Astronomical Twilight 5:44 AM MDT 9:09 PM MDT
Moon 5:07 PM MDT (9/15) 2:58 AM MDT (9/15)
Length of Visible Light 13h 18m
Length of Day
12h 25m
Waxing Gibbous, 82% of the Moon is Illuminated
Sep 15
Waxing Gibbous
Sep 19
Full
Sep 26
Last Quarter
Oct 4
New
Oct 11
First Quarter

Hourly Weather History & Observations

Time (MDT) Temp. Dew Point Humidity Pressure Visibility Wind Dir Wind Speed Gust Speed Precip Events Conditions
12:52 AM 61.0 °F 55.9 °F 83% 29.86 in 10.0 mi Calm Calm - N/A   Overcast
1:52 AM 57.9 °F 55.0 °F 90% 29.86 in 10.0 mi Calm Calm - N/A   Clear
2:52 AM 55.9 °F 53.1 °F 90% 29.86 in 10.0 mi West 8.1 mph - N/A   Clear
3:52 AM 54.0 °F 51.1 °F 90% 29.87 in 10.0 mi South 3.5 mph - N/A   Clear
4:52 AM 54.0 °F 51.1 °F 90% 29.88 in 10.0 mi West 4.6 mph - N/A   Clear
5:52 AM 54.0 °F 50.0 °F 86% 29.90 in 10.0 mi West 4.6 mph - N/A   Clear
6:25 AM 53.6 °F 50.0 °F 88% 30.06 in 10.0 mi South 3.5 mph - N/A   Scattered Clouds
6:43 AM 51.8 °F 50.0 °F 94% 30.06 in 1.8 mi SSE 3.5 mph - N/A   Mostly Cloudy
6:52 AM 51.1 °F 50.0 °F 96% 29.92 in 1.5 mi Calm Calm - N/A   Mostly Cloudy
6:55 AM 51.8 °F 50.0 °F 94% 30.06 in 2.0 mi Calm Calm - N/A   Mostly Cloudy
7:01 AM 51.8 °F 48.2 °F 88% 30.06 in 3.0 mi WSW 4.6 mph - N/A   Scattered Clouds
7:52 AM 53.1 °F 51.1 °F 93% 29.94 in 10.0 mi WSW 6.9 mph - N/A   Clear
8:52 AM 55.9 °F 52.0 °F 87% 29.94 in 10.0 mi South 4.6 mph - N/A   Clear
9:52 AM 63.0 °F 52.0 °F 67% 29.94 in 10.0 mi Calm Calm - N/A   Clear
10:52 AM 68.0 °F 52.0 °F 56% 29.94 in 10.0 mi ENE 4.6 mph - N/A   Clear
11:52 AM 73.0 °F 50.0 °F 44% 29.92 in 10.0 mi Variable 4.6 mph - N/A   Clear
12:52 PM 75.0 °F 48.0 °F 38% 29.91 in 10.0 mi Calm Calm - N/A   Clear
1:52 PM 77.0 °F 45.0 °F 32% 29.89 in 10.0 mi South 8.1 mph - N/A   Clear
2:52 PM 79.0 °F 46.0 °F 31% 29.87 in 10.0 mi South 8.1 mph - N/A   Clear
3:52 PM 80.1 °F 44.1 °F 28% 29.86 in 10.0 mi Calm Calm - N/A   Clear
4:52 PM 81.0 °F 43.0 °F 26% 29.84 in 10.0 mi Variable 4.6 mph - N/A   Clear
5:52 PM 80.1 °F 45.0 °F 29% 29.84 in 10.0 mi SSW 10.4 mph - N/A   Clear
6:52 PM 79.0 °F 45.0 °F 30% 29.86 in 10.0 mi SSW 8.1 mph - N/A   Mostly Cloudy
7:52 PM 73.0 °F 48.9 °F 42% 29.88 in 10.0 mi South 9.2 mph - N/A   Clear
8:52 PM 66.9 °F 48.9 °F 52% 29.90 in 10.0 mi SSE 3.5 mph - N/A   Clear
9:52 PM 68.0 °F 48.9 °F 50% 29.89 in 10.0 mi SW 4.6 mph - N/A   Clear
10:52 PM 64.9 °F 51.1 °F 61% 29.89 in 10.0 mi South 3.5 mph - N/A   Clear
11:52 PM 64.0 °F 51.1 °F 63% 29.89 in 10.0 mi South 4.6 mph - N/A   Clear